Location: Unspecified
(0.0000°N, 0.0000°E)
Time: 16:34:00
(UTC+02:00)

Iridium 84 - Visible Passes

Search period start: 22 May 2015 00:00
Search period end: 01 June 2015 00:00
Orbit: 776 x 779 km, 86.4° (Epoch: 21 May)

Date Brightness Start Highest point End Pass type
(mag) Time Alt. Az. Time Alt. Az. Time Alt. Az.
22 May 7.5 05:41:05 10° SE 05:45:20 26° E 05:49:42 10° NNE visible
22 May 7.0 07:22:31 10° SW 07:25:58 17° W 07:29:06 10° NW visible
23 May 8.4 05:10:11 10° ESE 05:11:43 12° E 05:13:41 10° ENE visible
23 May 6.0 06:48:54 17° SSW 06:52:24 37° W 06:57:09 10° NNW visible
24 May 5.4 06:16:26 32° S 06:18:55 85° W 06:24:08 10° N visible
25 May 6.6 05:43:53 33° SE 05:45:26 43° E 05:50:22 10° NNE visible
26 May 7.8 05:11:16 19° E 05:11:53 19° E 05:15:40 10° NE visible
26 May 6.6 06:51:47 23° WSW 06:52:31 23° W 06:56:29 10° NW visible
27 May 5.6 06:19:06 51° W 06:19:06 51° W 06:24:01 10° NNW visible
28 May 5.9 05:46:21 59° NE 05:46:21 59° NE 05:50:41 10° N visible
29 May 7.4 05:13:33 27° ENE 05:13:33 27° ENE 05:16:36 10° NNE visible
29 May 7.4 06:54:04 13° WNW 06:54:04 13° WNW 06:55:10 10° WNW visible
30 May 8.4 04:40:42 11° ENE 04:40:42 11° ENE 04:41:14 10° ENE visible
30 May 6.9 06:21:13 23° NW 06:21:13 23° NW 06:23:36 10° NNW visible
31 May 6.9 05:48:19 28° NNW 05:48:19 28° NNW 05:50:45 10° N visible
